Regional Weather Roundup
Issued by NWS Sioux Falls, SD

Home | Current Version | Previous Version | Graphics & Text | Print | Product List | Glossary On
Versions: 1 2 3 4 5 6 7 8 9 10 11 12 13 14 15 16 17 18 19 20 21 22 23 24 25 26 27 28 29 30 31 32 33 34 35 36 37 38 39 40 41 42 43 44 45 46 47 48 49 50
000
ASUS43 KFSD 290910
RWRFSD

WEATHER ROUNDUP FOR SE SOUTH DAKOTA/SW MINNESOTA/NW IOWA
NATIONAL WEATHER SERVICE SIOUX FALLS SD
400 AM CDT SAT AUG 29 2015

NOTE: "FAIR" INDICATES FEW OR NO CLOUDS BELOW 12,000 FEET WITH NO
SIGNIFICANT WEATHER AND OR OBSTRUCTIONS TO VISIBILITY.


SDZ038>040-050-052>070-291000-
SOUTHEAST SOUTH DAKOTA

CITY           SKY/WX    TMP DP  RH WIND       PRES   REMARKS
BROOKINGS      CLEAR     55  52  88 CALM      30.05R
CHAMBERLAIN    CLEAR     60  60 100 S5        30.00S
HURON          CLEAR     61  59  93 S9        29.99F
MADISON        FAIR      54  54 100 CALM      30.03S FOG
MITCHELL       CLEAR     61  58  90 S6        30.01F
SIOUX FALLS    CLEAR     54  52  93 CALM      30.02S
WINNER         FAIR      66  61  84 S9        30.02S
YANKTON        CLEAR     54  54 100 CALM      30.02S
$$

MNZ071-072-080-081-089-090-097-098-291000-
SOUTHWEST MINNESOTA

CITY           SKY/WX    TMP DP  RH WIND       PRES   REMARKS
FAIRMONT       CLOUDY    57  52  82 N5        30.02R
JACKSON        CLOUDY    57  55  94 NE6       30.03R FOG
LUVERNE        PTCLDY    54  50  87 CALM      30.03R
MARSHALL       CLEAR     54  48  82 CALM      30.02S
MONTEVIDEO     CLEAR     55  54  94 SW3       30.03S
PIPESTONE      CLEAR     54  52  94 CALM      30.03S
REDWOOD FALLS  FOG       53  52  96 CALM      30.02S VSB 1/4
TRACY          CLEAR     55  54  97 CALM      30.04R
WINDOM         CLOUDY    52  52 100 CALM      30.03R FOG
WORTHINGTON    CLOUDY    52  46  82 CALM      30.02S VSB 1/2
$$

IAZ001>003-012>014-020>022-031-032-NEZ013-014-SDZ071-291000-
NORTHWEST IOWA

CITY           SKY/WX    TMP DP  RH WIND       PRES   REMARKS
CHEROKEE       CLOUDY    58  58 100 NE7       30.02R
DENISON        CLOUDY    59  59 100 N9G18     29.98S
ESTHERVILLE    CLOUDY    56  56 100 N7        30.02R FOG
LE MARS        CLOUDY    59  57  94 NE3       30.03S
ORANGE CITY    MOCLDY    57  57 100 CALM      30.02S
SHELDON        MOCLDY    54  54 100 NE7       30.01S FOG
SIOUX CITY     CLOUDY    62  57  83 N6        30.02R
SPENCER        CLOUDY    58  56  93 N6        30.02R FOG
STORM LAKE     FOG       57  57 100 NE9       30.02S VSB 1/4
$$

ABBREVIATIONS USED IN REMARKS
   TC - TEMPERATURE IN CELSIUS
  WCI - WIND CHILL INDEX
   HX - HEAT INDEX
  VSB - VISIBILITY




USA.gov is the U.S. government's official web portal to all federal, state and local government web resources and services.